Regional Weather Roundup
Issued by NWS

Home | Current Version | Previous Version | Text Only | Print | Product List | Glossary Off
Versions: 1 2 3 4 5 6 7 8 9 10 11 12 13 14 15 16 17 18 19 20 21 22 23 24 25 26 27 28 29 30 31 32 33 34 35 36 37 38 39 40 41 42 43 44 45 46 47 48 49 50

000
ASUS45 KABQ 252310
RWRNM
NEW MEXICO REGIONAL WEATHER ROUNDUP
NATIONAL WEATHER SERVICE ALBUQUERQUE NM
500 PM MDT FRI MAY 25 2018

NOTE: "FAIR" MEANS FEW OR NO CLOUDS BELOW 12,000 FEET AGL WITH NO
       SIGNIFICANT WEATHER OR OBSTRUCTIONS TO VISION.

      THIS PRODUCT IS RELEASED AS TWO VERSIONS.  ONE VERSION NEAR
      THE TOP OF THE HOUR CONTAINING PRELIMINARY DATA FROM ALBUQUERQUE
      AND OTHER STATIONS.  A FINAL VERSION WITH ADDITIONAL DATA IS
      ISSUED ABOUT 10 MINUTES AFTER THE HOUR.

NMZ501-503-504-510>518-260000-
NORTHWEST PLATEAU/NORTHCENTRAL MOUNTAINS

CITY           SKY/WX    TMP DP  RH WIND       PRES   REMARKS
FARMINGTON     FAIR      87   4   4 S10       30.02F
LOS ALAMOS     FAIR      83  13   7 S20G25    30.16F
SANTA FE       FAIR      86   8   5 S14G22    30.11F
TAOS           FAIR      84  13   7 SW6G16    30.16F
ANGEL FIRE     FAIR      75  19  12 W9G17     30.26F

$$
NMZ402-403-502-505>509-260000-
WESTCENTRAL MOUNTAINS/SOUTHWEST MOUNTAINS

CITY           SKY/WX    TMP DP  RH WIND       PRES   REMARKS
GALLUP         FAIR      85  -1   3 W18G25    30.13F
GRANTS         FAIR      86   2   4 SW17      30.14F
SILVER CITY    FAIR      89   2   4 W12G24    30.11S

$$
NMZ407-409-411-412-260000-
SOUTHERN DESERTS

CITY           SKY/WX    TMP DP  RH WIND       PRES   REMARKS
DEMING         FAIR      94  11   4 SW12G22   30.02F
LAS CRUCES     FAIR      95   4   3 SW12G17   30.03F
HOLLOMAN AFB   FAIR      98  -5   2 S8        29.99F
ALAMOGORDO     FAIR      95   7   4 W10G20    29.99F
T OR C         FAIR      96  -7   2 S16G23    29.99F

$$
NMZ519>523-260000-
CENTRAL VALLEYS/CENTRAL HIGHLANDS

CITY           SKY/WX    TMP DP  RH WIND       PRES   REMARKS
ALBUQUERQUE    FAIR      89  19   7 SW7       30.05F
DOUBLE EAGLE   SUNNY     90  18   7 SW9       30.09F
MORIARTY ARPT  FAIR      90  14   6 W12G17    30.12F
CLINES CORNERS FAIR      84  16   8 NW8G20    30.18F
BELEN          FAIR      90  14   6 SE8       30.02F
SOCORRO        FAIR      93  14   5 SE15      29.99F

$$
NMZ524>526-539-540-260000-
SOUTHCENTRAL MOUNTAINS

CITY           SKY/WX    TMP DP  RH WIND       PRES   REMARKS
RUIDOSO        FAIR      82   9   6 W12G17    30.20F

$$
NMZ527>531-260000-
NORTHEAST HIGHLANDS/NORTHEAST PLAINS

CITY           SKY/WX    TMP DP  RH WIND       PRES   REMARKS
LAS VEGAS      FAIR      85   8   5 SW20G31   30.12F
RATON          FAIR      83  21  10 S13       30.06F
CLAYTON        FAIR      87  40  19 SE10      30.00F

$$
NMZ532>537-260000-
EASTCENTRAL PLAINS

CITY           SKY/WX    TMP DP  RH WIND       PRES   REMARKS
SANTA ROSA     FAIR      94  20   7 SW14G20   29.96F
TUCUMCARI      FAIR      96  30   9 S6G18     29.91F
CANNON AFB     FAIR      92  23   8 W10       29.98F
CLOVIS AIRPORT FAIR      92  31  11 SW12      29.98F

$$
NMZ028-029-538-260000-
SOUTHEAST PLAINS

CITY           SKY/WX    TMP DP  RH WIND       PRES   REMARKS
ROSWELL        FAIR     101  21   6 VRB5      29.90F
ARTESIA        FAIR      99  27   8 E13       29.89F
CARLSBAD       CLOUDY    99  23   6 S7        29.87F
HOBBS          SUNNY     99  16   5 SW12G17   29.93F


$$



USA.gov is the U.S. government's official web portal to all federal, state and local government web resources and services.